Three Rivers, MI

1:59 AM EDT on October 01, 2016 (GMT -0400)
Three Rivers Municipal-Haines

Weather History for KHAI - December, 2013

Change the Weather History Date:

Monday, December 2, 2013

  Actual Average Record
Temperature  
Mean Temperature 32 °F -  
Max Temperature 40 °F 40 °F 68 °F (1982)
Min Temperature 24 °F 24 °F 4 °F (1976)
Degree Days  
Heating Degree Days 33    
Moisture  
Dew Point 27 °F    
Average Humidity 84    
Maximum Humidity 99    
Minimum Humidity 60    
Precipitation  
Precipitation 0.00 in - - ()
Sea Level Pressure  
Sea Level Pressure 29.90 in    
Wind  
Wind Speed 2 mph (ESE)    
Max Wind Speed 8 mph    
Max Gust Speed -    
Visibility 6 miles    
Events Fog    
Averages and records for this station are not official NWS values.
T = Trace of Precipitation, MM = Missing Value Source: NWS Daily Summary

Daily Weather History Graph

Daily Weather History Graph

Search for Another Location

Airport or City:

Trip Planner

Search our weather history database for the weather conditions in past years. The results will help you decide how hot, cold, wet, or windy it might be!

Date:

Astronomy

Dec. 02, 2013 Rise Set
Actual Time 7:52 AM EST 5:11 PM EST
Civil Twilight 7:20 AM EST 5:42 PM EST
Nautical Twilight 6:46 AM EST 6:17 PM EST
Astronomical Twilight 6:12 AM EST 6:51 PM EST
Moon 7:15 AM EST (12/2) 5:14 PM EST (12/2)
Length of Visible Light 10h 22m
Length of Day
9h 19m
Waning Crescent, 0% of the Moon is Illuminated
Dec 2
Waning Crescent
Dec 2
New
Dec 9
First Quarter
Dec 17
Full
Dec 25
Last Quarter

Hourly Weather History & Observations

Time (EST) Temp. Windchill Dew Point Humidity Pressure Visibility Wind Dir Wind Speed Gust Speed Precip Events Conditions
12:15 AM 27.3 °F - 25.2 °F 92% 29.99 in 4.0 mi Calm Calm - N/A   Clear
12:35 AM 25.7 °F - 23.2 °F 90% 29.98 in 4.0 mi Calm Calm - N/A   Clear
12:55 AM 25.7 °F - 23.2 °F 90% 29.98 in 4.0 mi Calm Calm - N/A   Clear
1:15 AM 26.1 °F - 23.9 °F 92% 29.97 in 4.0 mi Calm Calm - N/A   Clear
1:35 AM 25.7 °F - 23.9 °F 93% 29.97 in 3.0 mi Calm Calm - N/A   Clear
1:54 AM 25.3 °F - 23.4 °F 92% 29.96 in 2.5 mi Calm Calm - N/A   Clear
2:15 AM 24.8 °F - 22.8 °F 92% 29.96 in 3.0 mi Calm Calm - N/A   Clear
2:34 AM 26.2 °F - 23.9 °F 91% 29.96 in 4.0 mi Calm Calm - N/A   Clear
2:55 AM 26.4 °F - 24.1 °F 91% 29.96 in 3.0 mi Calm Calm - N/A   Clear
3:15 AM 26.1 °F - 23.7 °F 91% 29.96 in 4.0 mi Calm Calm - N/A   Clear
3:34 AM 25.5 °F - 23.2 °F 91% 29.96 in 4.0 mi Calm Calm - N/A   Scattered Clouds
3:55 AM 25.7 °F - 23.7 °F 92% 29.96 in 4.0 mi Calm Calm - N/A   Mostly Cloudy
4:15 AM 26.4 °F - 24.4 °F 92% 29.95 in 4.0 mi Calm Calm - N/A   Mostly Cloudy
4:34 AM 26.6 °F - 24.8 °F 93% 29.95 in 4.0 mi Calm Calm - N/A   Overcast
4:55 AM 27.5 °F - 25.5 °F 92% 29.95 in 4.0 mi Calm Calm - N/A   Overcast
5:15 AM 27.5 °F - 25.7 °F 93% 29.95 in 4.0 mi Calm Calm - N/A   Overcast
5:34 AM 27.5 °F - 25.7 °F 93% 29.95 in 3.0 mi Calm Calm - N/A   Mostly Cloudy
5:55 AM 27.7 °F - 25.7 °F 92% 29.95 in 3.0 mi Calm Calm - N/A   Mostly Cloudy
6:14 AM 28.0 °F - 25.7 °F 91% 29.94 in 3.0 mi Calm Calm - N/A   Overcast
6:35 AM 27.0 °F - 25.0 °F 92% 29.94 in 3.0 mi Calm Calm - N/A   Overcast
6:55 AM 27.7 °F - 26.1 °F 94% 29.94 in 3.0 mi Calm Calm - N/A   Overcast
7:14 AM 26.8 °F - 24.4 °F 91% 29.94 in 3.0 mi Calm Calm - N/A   Overcast
7:35 AM 26.6 °F - 24.8 °F 93% 29.94 in 3.0 mi Calm Calm - N/A   Overcast
7:55 AM 27.5 °F - 25.7 °F 93% 29.93 in 3.0 mi Calm Calm - N/A   Overcast
8:14 AM 26.6 °F - 24.8 °F 93% 29.93 in 2.0 mi Calm Calm - N/A   Mostly Cloudy
8:35 AM 27.5 °F - 25.7 °F 93% 29.93 in 1.8 mi Calm Calm - N/A   Mist
8:54 AM 27.1 °F - 25.5 °F 94% 29.94 in 2.0 mi Calm Calm - N/A   Overcast
9:15 AM 29.7 °F 23.7 °F 28.2 °F 94% 29.94 in 0.8 mi East 5.8 mph - N/A   Overcast
9:35 AM 30.0 °F 24.1 °F 28.8 °F 95% 29.94 in 0.2 mi East 5.8 mph - N/A Fog Light Freezing Fog
9:54 AM 30.2 °F 24.3 °F 28.9 °F 95% 29.93 in 0.2 mi East 5.8 mph - N/A Fog Light Freezing Fog
10:15 AM 30.6 °F 25.8 °F 29.3 °F 95% 29.93 in 0.2 mi ENE 4.6 mph - N/A Fog Light Freezing Fog
10:35 AM 30.6 °F 24.7 °F 29.3 °F 95% 29.93 in 0.2 mi ESE 5.8 mph - N/A Fog Light Freezing Fog
10:54 AM 31.1 °F 26.4 °F 30.2 °F 96% 29.93 in 0.2 mi East 4.6 mph - N/A Fog Light Freezing Fog
11:15 AM 31.1 °F 24.5 °F 30.2 °F 96% 29.92 in 0.8 mi East 6.9 mph - N/A   Overcast
11:35 AM 32.2 °F 28.9 °F 31.8 °F 99% 29.92 in 2.0 mi East 3.5 mph - N/A   Overcast
11:54 AM 34.2 °F 30.0 °F 32.9 °F 95% 29.91 in 3.0 mi East 4.6 mph - N/A   Overcast
12:15 PM 33.8 °F 29.6 °F 31.8 °F 92% 29.91 in 5.0 mi East 4.6 mph - N/A   Mostly Cloudy
12:34 PM 35.6 °F 30.7 °F 31.8 °F 86% 29.90 in 5.0 mi East 5.8 mph - N/A   Scattered Clouds
12:55 PM 37.2 °F 33.6 °F 31.1 °F 79% 29.90 in 7.0 mi SE 4.6 mph - N/A   Clear
1:15 PM 38.1 °F 33.7 °F 30.4 °F 74% 29.89 in 7.0 mi ESE 5.8 mph - N/A   Clear
1:34 PM 38.3 °F 33.9 °F 29.7 °F 71% 29.88 in 10.0 mi ESE 5.8 mph - N/A   Clear
1:55 PM 39.6 °F 34.7 °F 29.7 °F 68% 29.87 in 10.0 mi ESE 6.9 mph - N/A   Clear
2:15 PM 39.7 °F 34.9 °F 28.4 °F 64% 29.86 in 10.0 mi East 6.9 mph - N/A   Clear
2:34 PM 40.5 °F 35.1 °F 28.9 °F 64% 29.86 in 10.0 mi SE 8.1 mph - N/A   Scattered Clouds
2:55 PM 39.7 °F 34.3 °F 27.0 °F 60% 29.86 in 10.0 mi SE 8.1 mph - N/A   Scattered Clouds
3:15 PM 39.6 °F 35.4 °F 28.4 °F 64% 29.86 in 10.0 mi SSE 5.8 mph - N/A   Scattered Clouds
3:35 PM 38.7 °F 35.2 °F 28.4 °F 67% 29.86 in 10.0 mi SE 4.6 mph - N/A   Scattered Clouds
3:55 PM 38.3 °F 33.9 °F 28.4 °F 68% 29.85 in 10.0 mi ESE 5.8 mph - N/A   Scattered Clouds
4:14 PM 38.3 °F 35.9 °F 28.4 °F 68% 29.85 in 10.0 mi ESE 3.5 mph - N/A   Scattered Clouds
4:35 PM 38.5 °F 36.1 °F 28.4 °F 67% 29.85 in 10.0 mi SE 3.5 mph - N/A   Mostly Cloudy
4:55 PM 37.8 °F 35.3 °F 28.8 °F 70% 29.85 in 10.0 mi East 3.5 mph - N/A   Overcast
5:14 PM 37.2 °F - 28.6 °F 71% 29.85 in 10.0 mi Calm Calm - N/A   Mostly Cloudy
5:35 PM 36.5 °F 33.9 °F 28.4 °F 72% 29.85 in 10.0 mi ESE 3.5 mph - N/A   Mostly Cloudy
5:55 PM 36.7 °F 32.9 °F 28.4 °F 72% 29.85 in 10.0 mi ESE 4.6 mph - N/A   Overcast
6:14 PM 36.7 °F - 28.9 °F 74% 29.85 in 10.0 mi Calm Calm - N/A   Overcast
6:35 PM 36.5 °F - 29.1 °F 75% 29.85 in 10.0 mi Calm Calm - N/A   Overcast
6:55 PM 36.3 °F 33.7 °F 29.1 °F 75% 29.85 in 10.0 mi ESE 3.5 mph - N/A   Overcast
7:14 PM 35.6 °F - 28.8 °F 76% 29.85 in 10.0 mi Calm Calm - N/A   Overcast
7:35 PM 34.5 °F 31.6 °F 28.4 °F 78% 29.85 in 10.0 mi ESE 3.5 mph - N/A   Mostly Cloudy
7:55 PM 33.8 °F 30.8 °F 28.2 °F 80% 29.85 in 10.0 mi ESE 3.5 mph - N/A   Scattered Clouds
8:14 PM 34.2 °F 31.2 °F 28.6 °F 80% 29.86 in 10.0 mi ESE 3.5 mph - N/A   Mostly Cloudy
8:35 PM 34.9 °F 30.8 °F 28.9 °F 79% 29.86 in 10.0 mi ESE 4.6 mph - N/A   Overcast
8:55 PM 34.9 °F 30.8 °F 28.9 °F 79% 29.86 in 10.0 mi ESE 4.6 mph - N/A   Overcast
9:15 PM 35.1 °F 29.3 °F 28.8 °F 78% 29.86 in 10.0 mi ESE 6.9 mph - N/A   Overcast
9:35 PM 34.9 °F 29.9 °F 28.8 °F 78% 29.87 in 10.0 mi ESE 5.8 mph - N/A   Overcast
9:54 PM 34.7 °F 29.6 °F 28.8 °F 79% 29.86 in 10.0 mi ESE 5.8 mph - N/A   Overcast
10:15 PM 34.7 °F 28.8 °F 29.1 °F 80% 29.86 in 10.0 mi ESE 6.9 mph - N/A   Overcast
10:35 PM 34.7 °F 29.6 °F 29.1 °F 80% 29.86 in 10.0 mi ESE 5.8 mph - N/A   Overcast
10:55 PM 34.7 °F 28.1 °F 28.9 °F 79% 29.85 in 10.0 mi ESE 8.1 mph - N/A   Overcast
11:15 PM 34.7 °F 28.8 °F 28.4 °F 78% 29.86 in 10.0 mi ESE 6.9 mph - N/A   Overcast
11:34 PM 34.7 °F 28.8 °F 28.2 °F 77% 29.85 in 10.0 mi ESE 6.9 mph - N/A   Overcast
11:55 PM 34.7 °F 28.8 °F 27.9 °F 76% 29.85 in 10.0 mi ESE 6.9 mph - N/A   Overcast